Regional Weather Roundup
Issued by NWS Wakefield, VA

Home | Current Version | Previous Version | Graphics & Text | Print | Product List | Glossary On
Versions: 1 2 3 4 5 6 7 8 9 10 11 12 13 14 15 16 17 18 19 20 21 22 23 24 25 26 27 28 29 30 31 32 33 34 35 36 37 38 39 40 41 42 43 44 45 46 47 48 49 50
000
ASUS41 KAKQ 010515
RWRAKQ

REGIONAL WEATHER ROUNDUP
NATIONAL WEATHER SERVICE WAKEFIELD VA
100 AM EDT MON JUN 01 2015

Note: "fair" indicates few or no clouds below 12,000 feet with no
significant weather and/or obstructions to visibility. * = Denotes
station may not report precipitation (e.g., rain,snow,etc.),
thunder or fog.

VAZ042-051-052>054-056-010600-
NORTHERN VIRGINIA

CITY           SKY/WX    TMP DP  RH WIND       PRES   REMARKS
WASH NATIONAL  CLOUDY    78  68  71 S13       30.01S
DULLES         CLOUDY    77  70  79 S8        30.00S
FORT BELVOIR   CLOUDY    76  69  78 SE5       30.00S
QUANTICO       CLOUDY    74  69  85 S15       30.01S
FREDERICKSBRG* MOCLDY    78  66  68 S9        30.01R
STAFFORD*      CLOUDY    74  64  72 S5        30.05S
WARRENTON      CLOUDY    74  68  81 SW3       30.01S
CULPEPER*      CLOUDY    70  66  87 SW3       30.02S
MANASSAS*      CLOUDY    75  66  73 S5        30.00S
LEESBURG*      CLOUDY    75  70  83 W7        30.01S
WINCHESTER     MOCLDY    70  70 100 SW3       30.01S
FRONT ROYAL*   FAIR      70  68  94 S6        30.01S
LURAY*         FAIR      70  64  83 CALM      30.04S
$$

VAZ048-049-060>072-079>083-010600-
CENTRAL AND SOUTH CENTRAL VIRGINIA

CITY           SKY/WX    TMP DP  RH WIND       PRES   REMARKS
RICHMOND       MOCLDY    76  66  71 S12       30.04S
CHESTERFIELD*  NOT AVBL
PETERSBURG*    PTCLDY    74  70  87 S3        30.06S
HANOVER        PTCLDY    77  66  68 S13       30.05R
TAPPAHANNOCK*  CLEAR     75  63  64 S7        30.05S
QUINTON*       FAIR      75  67  77 S6        30.05S
CHARLOTTSVILLE LGT RAIN  69  66  90 NE3       30.03F
GORDONSVILLE*  CLOUDY    69  65  86 SW7G22    30.04R FOG
ORANGE*        MOCLDY    73  66  78 S8        30.05R
LOUISA*        CLOUDY    75  66  73 W7        30.04R
BUMPASS*       MOCLDY    73  64  73 SE3       30.03R
FARMVILLE*     CLOUDY    72  69  92 CALM      30.03S
CREWE*         FAIR      73  66  76 S5        30.05R
FORT PICKETT*  MOCLDY    73  66  80 S8        30.06R
CHASE CITY*    CLOUDY    76  68  74 S5        30.06S
CLARKSVILLE*   NOT AVBL
SOUTH HILL*    PTCLDY    72  65  79 S7        30.12S
LAWRENCEVILLE* FAIR      72  66  83 S3        30.07R
EMPORIA*       PTCLDY    72  64  78 SE5       30.08S
$$

VAZ088>098-010600-
SOUTHEAST VIRGINIA

CITY           SKY/WX    TMP DP  RH WIND       PRES   REMARKS
NORFOLK        CLEAR     75  67  76 S13       30.08R
VIRGINIA BEACH PTCLDY    76  68  76 S8        30.08R
NORFOLK NAVAL  PTCLDY    80  68  66 S9        30.09R
WEST POINT*    MOCLDY    79  65  62 S9        30.07S
SALUDA*        FAIR      75  67  76 S8        30.05S
NEWPORT NEWS   CLOUDY    80  68  66 S12       30.07S
LANGLEY AFB    PTCLDY    75  68  79 S13       30.06S
FORT EUSTIS    MOCLDY    76  69  78 S8        30.05S
WILLIAMSBURG*  MOCLDY    79  70  73 S12       30.07S
HR EXEC AP*    FAIR      72  66  83 S7        30.10S
FRANKLIN*      MOCLDY    73  67  84 S7        30.08S
WAKEFIELD      MOCLDY    75  67  76 S6        30.06F
$$

VAZ020-022-025-037-045-010600-
WEST CENTRAL AND SOUTHWEST VIRGINIA

CITY           SKY/WX    TMP DP  RH WIND       PRES   REMARKS
STAUNTON*      MOCLDY    70  67  90 CALM      30.07S
WAYNESBORO*    FAIR      65  65  99 CALM      30.07S
HOT SPRINGS VA CLEAR     63  56  76 W15       30.15S
LYNCHBURG      PTCLDY    67  63  87 CALM      30.07S
DANVILLE       MOCLDY    69  65  86 NW5       30.06S
SOUTH BOSTON*  CLOUDY    71  62  75 CALM      30.05S
MARTINSVILLE   PTCLDY    63  63 100 CALM      30.10S FOG
ROANOKE        PTCLDY    70  65  84 W3        30.08S
BLACKSBURG     PTCLDY    64  62  96 CALM      30.15S
DUBLIN*        MOCLDY    66  64  95 W3        30.13S
MARION*        CLOUDY    63  61  96 W5        30.16F FOG
HILLSVILLE*    PTCLDY    61  59  94 SW3       30.17F
RICHLANDS*     CLOUDY    66  61  84 S3        30.14S
WISE*          CLOUDY    64  63  94 SW3       30.14F
ABINGDON*      MOCLDY    66  64  91 CALM      30.11F
$$

MDZ021>025-VAZ099-100-010600-
SOUTHERN MARYLAND AND THE DELMARVA PENINSULA

CITY           SKY/WX    TMP DP  RH WIND       PRES   REMARKS
PATUXENT RIVER MOCLDY    75  67  76 S9        30.03S
BAY BRIDGE APT   N/A    N/A N/A N/A S10       30.02S
LEONARDTOWN    MOCLDY    73  64  73 S5        30.05S
DOVER          MOCLDY    73  68  85 S12       30.00F
GEORGETOWN     CLOUDY    73  68  84 S13       30.06S
EASTON         MOCLDY    76  71  84 S12       30.07S
CAMBRIDGE      MOCLDY    77  70  78 S8        30.04S
SALISBURY      CLOUDY    71  67  87 S10       30.06S
OCEAN CITY     MOCLDY    70  67  90 SW13G20   30.07F
WALLOPS ISLAND CLEAR     71  69  93 S14G24    30.08S
ACCOMACK*      CLEAR     72  70  94 S8        30.07S
$$

NCZ012>017-030>032-010600-
NORTH CENTRAL AND EASTERN NORTH CAROLINA

CITY           SKY/WX    TMP DP  RH WIND       PRES   REMARKS
ROANOKE RAPIDS FAIR      72  64  78 S6        30.08R
RALEIGH        PTCLDY    74  66  76 SW8       30.08R
ELIZABETH CITY PTCLDY    74  69  85 S7        30.10S
AHOSKIE*       PTCLDY    69  66  88 S5        30.09R
EDENTON*       CLEAR     73  68  84 S8        30.10S
CURRITUCK*     CLEAR     74  67  79 CALM      30.10S
KILL DEVIL HLS CLEAR     75  67  77 S5        30.09S
MANTEO         PTCLDY    76  68  77 SW15      30.11S
CAPE HATTERAS  CLEAR     75  66  73 S9        30.12S
TARBORO*       FAIR      73  67  81 S5        30.09S
GOLDSBORO      CLEAR     72  67  86 CALM      30.07F
WASHINGTON     CLEAR     72  68  87 S6        30.10S
GREENVILLE     CLEAR     72  70  94 SW3       30.11S
NEW BERN       CLEAR     69  66  90 S3        30.11F
WILMINGTON     CLEAR     73  68  84 S3        30.10S
$$

VAZ048-010600-
ELSEWHERE

CITY           SKY/WX    TMP DP  RH WIND       PRES   REMARKS
HARRISBURG PA  CLOUDY    69  66  90 S6        30.00F
BALTIMORE      TSTM      73  66  78 VRB5      30.00F VSB 1
ANNAPOLIS      CLOUDY    74  68  81 S12       30.00S
ANDREWS AFB    CLOUDY    74  68  81 S13       30.00F
PHILADELPHIA   CLOUDY    75  64  68 S6        30.03S
HENDERSON NC   PTCLDY    73  64  73 S6        30.07S
GREENSBORO     MOCLDY    70  66  87 S5        30.06F
ROCKY MOUNT    CLEAR     73  66  78 S6        30.09R
$$

VAZ100-010600-
MARINE

STATION/POSITION TIME  TEMP    WIND        PRES    WAVE   SWELL
                       AIR SEA DIR/SP/G            HT/PER HT/PER
                 (UTC) (F)     (DEG/KT/KT) (MB)    (FT/S) (FT/S)
BRANDYWINE LGT   0400   66 63  180/ 13/ 14 1017.6F
CAPE MAY NJ      0400   67 69  170/  9/ 13 1017.6F
LEWES DE         0400   73 62  200/  8/ 12 1017.4F
15NM E FENWICK I 0450   69 66              1018.2R   4/ 9
OCEAN-CITY-INLET 0400   62 59  200/  6/  8 1017.9F
WACHAPREAGUE VA  0400   73 79  200/ 14/ 19 1018.3F
THOMAS POINT MD  0500   73 72  170/ 19/ 21 1016.7R
GOOSES REEF MD   0500   73 72  190/ 14/ 14 1017.5R   2/ 3
COVE POINT MD    0400   72     190/ 16/ 18 1017.7S
SOLOMONS ISLAND  0400      74                N/A
BISHOPS HEAD MD  0400   76 76  170/ 17/ 19 1017.0R
PINEY POINT MD   0400          200/ 11/ 13   N/A
CAMBRIDGE MD     0400   76 75  170/  8/ 13 1017.0S
LEWISETTA VA     0400   75 73              1016.9R
RAPPAHANNOCK LGT 0400          160/ 15/ 15 1018.5S
STINGRAY PT      0500   76 74  200/ 14/ 16 1017.6S   1/ 3
YORK RVR RNG VA  0400   77     200/ 17/ 20 1017.2S
YORKTOWN VA      0400   77 75  190/  9/ 16 1017.6S
JAMESTOWN VA     0500   76 80  180/ 12/ 16   N/A
DOMINION TERM VA 0400   76     200/ 14/ 17 1018.2F
KIPTOPEKE VA     0400      77  170/  9/ 11   N/A
CHES BAY BRIDGE  0400   75 61  170/ 12/ 15 1017.8F
CAPE HENRY VA    0400   75     180/  9/ 13 1017.1F
CHESAPEAKE LGHT  0400   70     190/ 20/ 21 1019.0F
WILLOUBY STN VA  0400   76     190/ 18/ 21 1018.8F
CAPE HENRY BUOY  0428      66                N/A     3/ 9
1ST LANDING BUOY 0500      66              1018.2R
CAPE CHARLES BUO 0426      67                N/A     3/10   2/10
OFFSHORE WE BUOY 0411      69                N/A     3/10   3/10
64NM E OF VA BCH 0450   71 68  180/  8/ 10 1019.2S   4/ 9   3/ 9
DUCK PIER NC     0400   76 56  200/ 10/ 17 1018.2F
44100 DUCK FRF   0424      74                N/A     3/ 9
44056 DUCK FRF   0411      61                N/A     3/10
OREGON INLET NC  0400   76 77  180/ 10/ 13 1019.6S
HATTERAS NC      0400   76 80  160/  8/ 10 1019.5R
DIAMOND SHLS NC  0450   77 79  170/ 10/ 12 1019.7F   4/ 9   3/ 9
CAPE LOOKOUT NC  0500   76     170/ 10/ 11 1019.2F
$$


USA.gov is the U.S. government's official web portal to all federal, state and local government web resources and services.